Glens Falls, NY

10:21 PM EDT on June 22, 2017 (GMT -0400)
Bennett Memorial

Weather History for KGFL - September, 2013

Change the Weather History Date:

Thursday, September 5, 2013

  Actual Average Record
Temperature  
Mean Temperature 57 °F 63 °F  
Max Temperature 69 °F 75 °F 92 °F (1973)
Min Temperature 44 °F 51 °F 34 °F (2000)
Degree Days  
Heating Degree Days 8 4  
Month to date heating degree days 8 18  
Since 1 July heating degree days 46 84  
Cooling Degree Days 0 2  
Month to date cooling degree days 22 10  
Year to date cooling degree days 516 337  
Growing Degree Days 8 (Base 50)    
Moisture  
Dew Point 47 °F    
Average Humidity 65    
Maximum Humidity 97    
Minimum Humidity 33    
Precipitation  
Precipitation T in 0.10 in 0.95 in (1953)
Month to date precipitation 1.00 0.51  
Year to date precipitation 26.27 26.32  
Sea Level Pressure  
Sea Level Pressure 30.02 in    
Wind  
Wind Speed 7 mph (North)    
Max Wind Speed 18 mph    
Max Gust Speed 24 mph    
Visibility 10 miles    
Events Rain    
T = Trace of Precipitation, MM = Missing Value Source: NWS Daily Summary

Daily Weather History Graph

Daily Weather History Graph

Search for Another Location

Airport or City:

Trip Planner

Search our weather history database for the weather conditions in past years. The results will help you decide how hot, cold, wet, or windy it might be!

Date:

Astronomy

Sep. 05, 2013 Rise Set
Actual Time 6:23 AM EDT 7:22 PM EDT
Civil Twilight 5:53 AM EDT 7:51 PM EDT
Nautical Twilight 5:19 AM EDT 8:25 PM EDT
Astronomical Twilight 4:42 AM EDT 9:02 PM EDT
Moon 6:33 AM EDT (9/5) 7:09 PM EDT (9/5)
Length of Visible Light 13h 57m
Length of Day
12h 59m
New Moon, 0% of the Moon is Illuminated
Sep 5
New Moon
Sep 12
First Quarter
Sep 19
Full
Sep 26
Last Quarter
Oct 4
New

Hourly Weather History & Observations

Time (EDT) Temp. Windchill Dew Point Humidity Pressure Visibility Wind Dir Wind Speed Gust Speed Precip Events Conditions
12:53 AM 64.0 °F - 57.0 °F 78% 29.89 in 8.0 mi NNW 4.6 mph - 0.00 in Rain Light Rain
1:53 AM 61.0 °F - 59.0 °F 93% 29.89 in 10.0 mi South 4.6 mph - 0.00 in   Overcast
2:53 AM 60.1 °F - 59.0 °F 96% 29.88 in 9.0 mi Calm Calm - N/A   Scattered Clouds
3:53 AM 59.0 °F - 57.9 °F 96% 29.88 in 10.0 mi Calm Calm - N/A   Clear
4:53 AM 60.1 °F - 57.9 °F 93% 29.91 in 10.0 mi NNE 4.6 mph - N/A   Clear
5:35 AM 60.8 °F - 59.0 °F 94% 29.92 in 10.0 mi ENE 4.6 mph - N/A   Mostly Cloudy
5:53 AM 61.0 °F - 55.9 °F 83% 29.93 in 10.0 mi ENE 13.8 mph 19.6 mph N/A   Overcast
6:53 AM 59.0 °F - 52.0 °F 78% 29.99 in 10.0 mi North 11.5 mph - N/A   Overcast
7:15 AM 57.2 °F - 51.8 °F 82% 29.99 in 10.0 mi NE 8.1 mph - N/A   Mostly Cloudy
7:53 AM 57.9 °F - 48.9 °F 72% 30.01 in 10.0 mi NE 6.9 mph - N/A   Partly Cloudy
8:53 AM 59.0 °F - 46.9 °F 64% 30.01 in 10.0 mi NE 8.1 mph - N/A   Scattered Clouds
9:53 AM 62.1 °F - 46.9 °F 58% 30.03 in 10.0 mi North 6.9 mph - N/A   Clear
10:53 AM 63.0 °F - 46.0 °F 54% 30.03 in 10.0 mi North 11.5 mph - N/A   Clear
11:53 AM 66.0 °F - 44.1 °F 45% 30.03 in 10.0 mi North 9.2 mph - N/A   Clear
12:53 PM 68.0 °F - 39.0 °F 35% 30.03 in 10.0 mi NW 15.0 mph 21.9 mph N/A   Partly Cloudy
1:53 PM 66.0 °F - 37.0 °F 34% 30.04 in 10.0 mi NW 12.7 mph - N/A   Mostly Cloudy
2:53 PM 69.1 °F - 39.0 °F 33% 30.04 in 10.0 mi NW 11.5 mph 19.6 mph N/A   Scattered Clouds
3:53 PM 66.9 °F - 39.9 °F 37% 30.04 in 10.0 mi NNW 11.5 mph 19.6 mph N/A   Mostly Cloudy
4:53 PM 66.0 °F - 39.9 °F 38% 30.06 in 10.0 mi NW 6.9 mph - N/A   Partly Cloudy
5:53 PM 64.0 °F - 39.9 °F 41% 30.07 in 10.0 mi NNW 6.9 mph - N/A   Partly Cloudy
6:53 PM 62.1 °F - 39.9 °F 44% 30.08 in 10.0 mi NNW 6.9 mph - N/A   Clear
7:53 PM 57.0 °F - 41.0 °F 55% 30.11 in 10.0 mi NNW 5.8 mph - N/A   Clear
8:53 PM 54.0 °F - 41.0 °F 62% 30.15 in 10.0 mi North 4.6 mph - N/A   Clear
9:53 PM 55.0 °F - 39.0 °F 55% 30.17 in 10.0 mi NNE 4.6 mph - N/A   Clear
10:53 PM 48.9 °F - 41.0 °F 74% 30.19 in 10.0 mi NW 4.6 mph - N/A   Clear
11:53 PM 45.0 °F 42.6 °F 42.1 °F 90% 30.20 in 10.0 mi NW 4.6 mph - N/A   Clear